Weather History for Columbia Owens, SC

Change the Weather History Date:

Monday, August 19, 2013

  Actual Average Record
Temperature  
Mean Temperature 76 °F 81 °F  
Max Temperature 79 °F 91 °F 97 °F (1999)
Min Temperature 72 °F 71 °F 69 °F (2008)
Degree Days  
Heating Degree Days 0 0  
Month to date heating degree days 0 0  
Since 1 June heating degree days 0 0  
Since 1 July heating degree days 0 0  
Cooling Degree Days 11 16  
Month to date cooling degree days 283 319  
Year to date cooling degree days 1550 1635  
Since 1 June cooling degree days 1240 1299  
Growing Degree Days 25 (Base 50)    
Moisture  
Dew Point 72 °F    
Average Humidity 92    
Maximum Humidity 100    
Minimum Humidity 79    
Precipitation  
Precipitation 0.83 in 0.16 in 0.89 in (2012)
Month to date precipitation 6.74 3.20  
Year to date precipitation 41.64 30.11  
Sea Level Pressure  
Sea Level Pressure 30.13 in    
Wind  
Wind Speed 1 mph (NNE)    
Max Wind Speed 23 mph    
Max Gust Speed 31 mph    
Visibility 8 miles    
Events Rain    
T = Trace of Precipitation, MM = Missing Value Source: NWS Daily Summary

Daily Weather History Graph

Daily Weather History Graph

Search for Another Location

Airport:

Trip Planner

Search our weather history database for the weather conditions in past years. The results will help you decide how hot, cold, wet, or windy it might be!

Date:

Astronomy

Aug. 19, 2013 Rise Set
Actual Time 6:48 AM EDT 8:05 PM EDT
Civil Twilight 6:22 AM EDT 8:31 PM EDT
Nautical Twilight 5:51 AM EDT 9:03 PM EDT
Astronomical Twilight 5:18 AM EDT 9:35 PM EDT
Moon 6:55 PM EDT (8/19) 5:07 AM EDT (8/19)
Length of Visible Light 14h 09m
Length of Day
13h 17m
Waxing Gibbous, 97% of the Moon is Illuminated
Aug 19
Waxing Gibbous
Aug 20
Full
Aug 28
Last Quarter
Sep 5
New
Sep 12
First Quarter

Hourly Weather History & Observations

Time (EDT) Temp. Dew Point Humidity Pressure Visibility Wind Dir Wind Speed Gust Speed Precip Events Conditions
12:26 AM 73.4 °F 73.4 °F 100% 30.19 in 5.0 mi NW 3.5 mph - 0.04 in Rain Rain
12:42 AM 73.4 °F 73.4 °F 100% 30.19 in 8.0 mi NW 3.5 mph - 0.05 in Rain Light Rain
12:53 AM 73.9 °F 72.0 °F 93% 30.17 in 10.0 mi NW 3.5 mph - 0.05 in Rain Light Rain
12:59 AM 73.4 °F 71.6 °F 94% 30.18 in 10.0 mi Calm Calm - 0.01 in Rain Light Rain
1:31 AM 73.4 °F 71.6 °F 94% 30.18 in 10.0 mi Calm Calm - 0.01 in   Overcast
1:53 AM 73.0 °F 71.1 °F 93% 30.16 in 10.0 mi Calm Calm - 0.01 in   Overcast
2:07 AM 73.4 °F 71.6 °F 94% 30.17 in 10.0 mi Calm Calm - N/A   Overcast
2:16 AM 73.4 °F 71.6 °F 94% 30.17 in 10.0 mi Calm Calm - N/A   Overcast
2:53 AM 73.0 °F 71.1 °F 93% 30.15 in 10.0 mi Calm Calm - 0.00 in Rain Light Rain
3:03 AM 73.4 °F 71.6 °F 94% 30.16 in 10.0 mi Variable 3.5 mph - 0.00 in Rain Light Rain
3:45 AM 71.6 °F 71.6 °F 100% 30.14 in 10.0 mi Variable 4.6 mph - 0.01 in Rain Light Rain
3:53 AM 72.0 °F 71.1 °F 97% 30.13 in 10.0 mi NE 3.5 mph - 0.01 in Rain Light Rain
4:48 AM 71.6 °F 69.8 °F 94% 30.12 in 1.8 mi Calm Calm - 0.14 in Rain Heavy Rain
4:49 AM 72.0 °F 70.0 °F 93% 30.12 in 1.8 mi Calm Calm - 0.15 in Rain Heavy Rain
4:59 AM 71.6 °F 71.6 °F 100% 30.13 in 1.8 mi Calm Calm - 0.08 in Rain Heavy Rain
5:03 AM 71.6 °F 71.6 °F 100% 30.13 in 3.0 mi Calm Calm - 0.09 in Rain Rain
5:07 AM 71.6 °F 71.6 °F 100% 30.12 in 2.5 mi NNE 4.6 mph - 0.13 in Rain Heavy Rain
5:17 AM 71.6 °F 69.8 °F 94% 30.12 in 2.0 mi NNE 4.6 mph - 0.21 in Rain Rain
5:26 AM 71.6 °F 69.8 °F 94% 30.13 in 10.0 mi Variable 6.9 mph - 0.21 in Rain Light Rain
5:33 AM 71.6 °F 69.8 °F 94% 30.14 in 2.5 mi SSW 23.0 mph 31.1 mph 0.32 in Rain Heavy Rain
5:38 AM 71.6 °F 69.8 °F 94% 30.12 in 1.0 mi ENE 8.1 mph 31.1 mph 0.50 in Rain Heavy Rain
5:47 AM 71.6 °F 69.8 °F 94% 30.13 in 2.0 mi Calm Calm - 0.54 in Rain Light Rain
5:53 AM 72.0 °F 70.0 °F 93% 30.12 in 8.0 mi ENE 3.5 mph - 0.54 in Rain Light Rain
6:53 AM 73.0 °F 71.1 °F 93% 30.12 in 10.0 mi Calm Calm - 0.00 in   Overcast
7:53 AM 73.0 °F 71.1 °F 93% 30.13 in 10.0 mi Calm Calm - N/A   Overcast
8:02 AM 73.4 °F 71.6 °F 94% 30.14 in 10.0 mi Calm Calm - N/A   Overcast
8:11 AM 73.4 °F 71.6 °F 94% 30.14 in 10.0 mi Calm Calm - N/A   Overcast
8:53 AM 73.0 °F 71.1 °F 93% 30.14 in 5.0 mi ENE 3.5 mph - 0.00 in Rain Light Rain
9:53 AM 73.9 °F 71.1 °F 91% 30.14 in 8.0 mi Variable 3.5 mph - 0.01 in Rain Light Rain
10:53 AM 75.0 °F 72.0 °F 90% 30.15 in 10.0 mi Calm Calm - 0.01 in Rain Light Rain
11:15 AM 75.2 °F 71.6 °F 89% 30.16 in 10.0 mi Calm Calm - 0.01 in Rain Light Rain
11:53 AM 75.9 °F 72.0 °F 87% 30.16 in 10.0 mi Calm Calm - 0.01 in   Overcast
12:53 PM 77.0 °F 73.0 °F 88% 30.14 in 10.0 mi Calm Calm - N/A   Overcast
1:02 PM 77.0 °F 71.6 °F 83% 30.15 in 10.0 mi Variable 3.5 mph - N/A   Overcast
1:53 PM 75.9 °F 73.0 °F 91% 30.14 in 3.0 mi NNE 4.6 mph - 0.05 in Rain Heavy Rain
1:57 PM 75.2 °F 73.4 °F 94% 30.15 in 1.8 mi Variable 3.5 mph - 0.02 in Rain Heavy Rain
2:03 PM 75.2 °F 73.4 °F 94% 30.15 in 2.0 mi Variable 3.5 mph - 0.02 in Rain Rain
2:13 PM 75.2 °F 73.4 °F 94% 30.14 in 7.0 mi Variable 4.6 mph - 0.02 in Rain Light Rain
2:29 PM 75.2 °F 73.4 °F 94% 30.14 in 3.0 mi Variable 5.8 mph - 0.04 in Rain Light Rain
2:53 PM 77.0 °F 73.9 °F 90% 30.12 in 10.0 mi Variable 4.6 mph - 0.05 in   Overcast
3:07 PM 78.8 °F 73.4 °F 83% 30.12 in 10.0 mi Variable 3.5 mph - N/A   Overcast
3:22 PM 78.8 °F 73.4 °F 83% 30.12 in 10.0 mi Variable 4.6 mph - N/A   Overcast
3:53 PM 78.1 °F 73.0 °F 84% 30.10 in 10.0 mi Calm Calm - N/A   Overcast
3:59 PM 77.0 °F 73.4 °F 89% 30.11 in 10.0 mi Calm Calm - N/A   Overcast
4:41 PM 78.8 °F 73.4 °F 83% 30.10 in 10.0 mi Calm Calm - N/A   Overcast
4:53 PM 78.1 °F 72.0 °F 81% 30.09 in 10.0 mi Variable 3.5 mph - N/A   Overcast
5:31 PM 78.8 °F 71.6 °F 78% 30.09 in 10.0 mi Calm Calm - N/A   Overcast
5:53 PM 79.0 °F 73.0 °F 82% 30.09 in 10.0 mi Calm Calm - N/A   Mostly Cloudy
6:53 PM 78.1 °F 73.0 °F 84% 30.09 in 10.0 mi Calm Calm - N/A   Partly Cloudy
7:53 PM 77.0 °F 73.0 °F 88% 30.11 in 10.0 mi Calm Calm - N/A   Scattered Clouds
8:53 PM 75.9 °F 73.0 °F 91% 30.11 in 10.0 mi Calm Calm - N/A   Partly Cloudy
9:53 PM 75.0 °F 73.0 °F 94% 30.11 in 10.0 mi Calm Calm - N/A   Clear
10:53 PM 73.9 °F 72.0 °F 93% 30.12 in 10.0 mi Calm Calm - N/A   Clear
11:35 PM 73.4 °F 71.6 °F 94% 30.14 in 10.0 mi Calm Calm - N/A   Mostly Cloudy
11:53 PM 73.9 °F 71.1 °F 91% 30.13 in 10.0 mi Calm Calm - N/A   Overcast